Time,TemperatureF,DewpointF,PressureIn,WindDirection,WindDirectionDegrees,WindSpeedMPH,WindSpeedGustMPH,Humidity,HourlyPrecipIn,Conditions,Clouds,dailyrainin,SoftwareType,DateUTC
2014-09-01 00:01:00,70.9,42.6,28.79,SSW,199,0.0,0.0,36,0.00,,---,0.00,VWS V14.01,2014-09-01 04:01:00,
2014-09-01 00:02:00,70.9,42.6,28.79,SSW,199,0.0,0.0,36,0.00,,---,0.00,VWS V14.01,2014-09-01 04:02:00,
2014-09-01 00:04:00,70.7,42.5,28.79,SSW,199,0.0,0.0,36,0.00,,---,0.00,VWS V14.01,2014-09-01 04:04:00,
2014-09-01 00:05:00,70.7,42.5,28.79,SSW,199,0.0,0.0,36,0.00,,---,0.00,VWS V14.01,2014-09-01 04:05:00,
2014-09-01 00:07:00,70.7,42.5,28.79,SSW,199,0.0,0.0,36,0.00,,---,0.00,VWS V14.01,2014-09-01 04:07:00,
2014-09-01 00:08:00,70.7,42.5,28.79,SSW,199,0.0,0.0,36,0.00,,---,0.00,VWS V14.01,2014-09-01 04:08:00,
2014-09-01 00:12:00,70.5,43.0,28.79,SSW,197,0.0,0.0,37,0.00,,---,0.00,VWS V14.01,2014-09-01 04:12:00,
2014-09-01 00:17:00,70.5,43.0,28.79,SSW,197,0.0,0.0,37,0.00,,---,0.00,VWS V14.01,2014-09-01 04:17:00,
2014-09-01 00:23:00,70.3,42.9,28.79,SSW,197,0.0,0.0,37,0.00,,---,0.00,VWS V14.01,2014-09-01 04:23:00,
2014-09-01 00:29:00,70.3,42.9,28.79,SSW,197,0.0,0.0,37,0.00,,---,0.00,VWS V14.01,2014-09-01 04:29:00,
2014-09-01 00:34:00,70.2,42.7,28.79,SSW,197,0.0,0.0,37,0.00,,---,0.00,VWS V14.01,2014-09-01 04:34:00,
2014-09-01 00:40:00,70.2,42.7,28.79,SSW,197,0.0,0.0,37,0.00,,---,0.00,VWS V14.01,2014-09-01 04:40:00,
2014-09-01 00:46:00,70.0,43.2,28.79,SSW,197,0.0,0.0,38,0.00,,---,0.00,VWS V14.01,2014-09-01 04:46:00,
2014-09-01 00:51:00,70.0,43.2,28.79,SSW,197,0.0,0.0,38,0.00,,---,0.00,VWS V14.01,2014-09-01 04:51:00,
2014-09-01 00:56:00,70.0,43.2,28.79,SSW,197,0.0,0.0,38,0.00,,---,0.00,VWS V14.01,2014-09-01 04:56:00,
2014-09-01 01:02:00,69.8,43.1,28.79,SSW,197,0.0,0.0,38,0.00,,---,0.00,VWS V14.01,2014-09-01 05:02:00,
2014-09-01 01:07:00,69.8,43.8,28.79,SSW,197,0.0,0.0,39,0.00,,---,0.00,VWS V14.01,2014-09-01 05:07:00,
2014-09-01 01:12:00,69.6,43.6,28.79,SSW,197,0.0,0.0,39,0.00,,---,0.00,VWS V14.01,2014-09-01 05:12:00,
2014-09-01 01:18:00,69.6,43.6,28.79,SSW,197,0.0,0.0,39,0.00,,---,0.00,VWS V14.01,2014-09-01 05:18:00,
2014-09-01 01:23:00,69.6,43.6,28.79,SSW,197,0.0,0.0,39,0.00,,---,0.00,VWS V14.01,2014-09-01 05:23:00,
2014-09-01 01:29:00,69.4,43.4,28.79,SSW,197,0.0,0.0,39,0.00,,---,0.00,VWS V14.01,2014-09-01 05:29:00,
2014-09-01 01:34:00,69.4,44.1,28.79,SSW,197,0.0,0.0,40,0.00,,---,0.00,VWS V14.01,2014-09-01 05:34:00,
2014-09-01 01:40:00,69.3,43.9,28.79,SSW,197,0.0,0.0,40,0.00,,---,0.00,VWS V14.01,2014-09-01 05:40:00,
2014-09-01 01:45:00,69.3,43.9,28.79,SSW,197,0.0,0.0,40,0.00,,---,0.00,VWS V14.01,2014-09-01 05:45:00,
2014-09-01 01:50:00,69.3,43.9,28.79,SSW,197,0.0,0.0,40,0.00,,---,0.00,VWS V14.01,2014-09-01 05:50:00,
2014-09-01 01:55:00,69.3,43.9,28.79,SSW,197,0.0,0.0,40,0.00,,---,0.00,VWS V14.01,2014-09-01 05:55:00,
2014-09-01 02:01:00,69.3,44.6,28.82,SSW,197,0.0,0.0,41,0.00,,---,0.00,VWS V14.01,2014-09-01 06:01:00,
2014-09-01 02:07:00,69.3,44.6,28.82,SSW,197,0.0,0.0,41,0.00,,---,0.00,VWS V14.01,2014-09-01 06:07:00,
2014-09-01 02:12:00,69.3,44.6,28.82,SSW,197,0.0,0.0,41,0.00,,---,0.00,VWS V14.01,2014-09-01 06:12:00,
2014-09-01 02:18:00,69.1,44.4,28.82,SSW,198,0.0,0.0,41,0.00,,---,0.00,VWS V14.01,2014-09-01 06:18:00,
2014-09-01 02:23:00,69.3,45.2,28.82,SSW,199,0.0,0.0,42,0.00,,---,0.00,VWS V14.01,2014-09-01 06:23:00,
2014-09-01 02:29:00,69.4,45.4,28.82,SSW,199,0.0,0.0,42,0.00,,---,0.00,VWS V14.01,2014-09-01 06:29:00,
2014-09-01 02:34:00,69.4,45.4,28.82,SSW,199,0.0,0.0,42,0.00,,---,0.00,VWS V14.01,2014-09-01 06:34:00,
2014-09-01 02:39:00,69.4,45.4,28.82,SSW,199,0.0,0.0,42,0.00,,---,0.00,VWS V14.01,2014-09-01 06:39:00,
2014-09-01 02:45:00,69.4,45.4,28.82,SSW,199,0.0,0.0,42,0.00,,---,0.00,VWS V14.01,2014-09-01 06:45:00,
2014-09-01 02:50:00,69.4,45.4,28.82,SSW,200,0.0,0.0,42,0.00,,---,0.00,VWS V14.01,2014-09-01 06:50:00,
2014-09-01 02:56:00,69.4,46.0,28.82,SSW,200,0.0,0.0,43,0.00,,---,0.00,VWS V14.01,2014-09-01 06:56:00,
2014-09-01 03:01:00,69.4,46.0,28.79,SSW,200,0.0,0.0,43,0.00,,---,0.00,VWS V14.01,2014-09-01 07:01:00,
2014-09-01 03:07:00,69.4,46.0,28.79,SSW,197,0.0,0.0,43,0.00,,---,0.00,VWS V14.01,2014-09-01 07:07:00,
2014-09-01 03:12:00,69.6,46.2,28.79,SSW,200,0.0,0.0,43,0.00,,---,0.00,VWS V14.01,2014-09-01 07:12:00,
2014-09-01 03:18:00,69.6,46.8,28.79,SSW,200,0.0,0.0,44,0.00,,---,0.00,VWS V14.01,2014-09-01 07:18:00,
2014-09-01 03:24:00,69.6,46.8,28.79,SSW,200,0.0,0.0,44,0.00,,---,0.00,VWS V14.01,2014-09-01 07:24:00,
2014-09-01 03:29:00,69.6,46.8,28.79,SSW,200,0.0,0.0,44,0.00,,---,0.00,VWS V14.01,2014-09-01 07:29:00,
2014-09-01 03:34:00,69.6,46.8,28.79,SSW,200,0.0,0.0,44,0.00,,---,0.00,VWS V14.01,2014-09-01 07:34:00,
2014-09-01 03:39:00,69.8,46.9,28.79,SSW,200,0.0,0.0,44,0.00,,---,0.00,VWS V14.01,2014-09-01 07:39:00,
2014-09-01 03:45:00,69.8,47.5,28.79,SSW,200,0.0,0.0,45,0.00,,---,0.00,VWS V14.01,2014-09-01 07:45:00,
2014-09-01 03:50:00,69.8,47.5,28.79,SSW,200,0.0,0.0,45,0.00,,---,0.00,VWS V14.01,2014-09-01 07:50:00,
2014-09-01 03:55:00,70.0,47.7,28.79,SW,221,0.0,0.0,45,0.00,,---,0.00,VWS V14.01,2014-09-01 07:55:00,
2014-09-01 04:00:00,70.0,48.3,28.79,SW,221,0.0,0.0,46,0.00,,---,0.00,VWS V14.01,2014-09-01 08:00:00,
2014-09-01 04:05:00,70.0,48.3,28.79,SSW,207,0.0,0.0,46,0.00,,---,0.00,VWS V14.01,2014-09-01 08:05:00,
2014-09-01 04:10:00,70.0,48.3,28.79,South,177,0.0,0.0,46,0.00,,---,0.00,VWS V14.01,2014-09-01 08:10:00,
2014-09-01 04:16:00,70.0,48.8,28.79,South,177,0.0,0.0,47,0.00,,---,0.00,VWS V14.01,2014-09-01 08:16:00,
2014-09-01 04:21:00,70.0,48.8,28.79,South,177,0.0,0.0,47,0.00,,---,0.00,VWS V14.01,2014-09-01 08:21:00,
2014-09-01 04:27:00,70.2,49.6,28.79,SW,228,0.0,0.0,48,0.00,,---,0.00,VWS V14.01,2014-09-01 08:27:00,
2014-09-01 04:32:00,70.0,49.4,28.79,South,183,0.0,0.0,48,0.00,,---,0.00,VWS V14.01,2014-09-01 08:32:00,
2014-09-01 04:38:00,70.2,50.1,28.79,South,183,0.0,0.0,49,0.00,,---,0.00,VWS V14.01,2014-09-01 08:38:00,
2014-09-01 04:43:00,70.2,50.1,28.79,South,183,0.0,0.0,49,0.00,,---,0.00,VWS V14.01,2014-09-01 08:43:00,
2014-09-01 04:49:00,70.2,50.7,28.79,South,183,0.0,0.0,50,0.00,,---,0.00,VWS V14.01,2014-09-01 08:49:00,
2014-09-01 04:55:00,70.2,50.7,28.79,South,183,0.0,0.0,50,0.00,,---,0.00,VWS V14.01,2014-09-01 08:55:00,
2014-09-01 05:00:00,70.2,51.2,28.79,SW,224,0.0,0.0,51,0.00,,---,0.00,VWS V14.01,2014-09-01 09:00:00,
2014-09-01 05:06:00,70.2,51.2,28.79,SSW,212,2.7,4.0,51,0.00,,---,0.00,VWS V14.01,2014-09-01 09:06:00,
2014-09-01 05:12:00,70.3,51.9,28.79,SSW,213,0.0,0.0,52,0.00,,---,0.00,VWS V14.01,2014-09-01 09:12:00,
2014-09-01 05:17:00,70.3,52.4,28.79,SSW,213,0.0,0.0,53,0.00,,---,0.00,VWS V14.01,2014-09-01 09:17:00,
2014-09-01 05:23:00,70.3,52.4,28.79,SW,225,0.0,0.0,53,0.00,,---,0.00,VWS V14.01,2014-09-01 09:23:00,
2014-09-01 05:28:00,70.3,52.9,28.79,SW,223,0.0,0.0,54,0.00,,---,0.00,VWS V14.01,2014-09-01 09:28:00,
2014-09-01 05:34:00,70.5,53.6,28.79,SW,223,0.0,0.0,55,0.00,,---,0.00,VWS V14.01,2014-09-01 09:34:00,
2014-09-01 05:40:00,70.5,54.6,28.79,SSW,211,0.0,4.0,57,0.00,,---,0.00,VWS V14.01,2014-09-01 09:40:00,
2014-09-01 05:45:00,70.5,54.6,28.82,SSW,200,0.0,0.0,57,0.00,,---,0.00,VWS V14.01,2014-09-01 09:45:00,
2014-09-01 05:51:00,70.5,55.0,28.82,SSW,200,0.0,0.0,58,0.00,,---,0.00,VWS V14.01,2014-09-01 09:51:00,
2014-09-01 05:56:00,70.7,55.2,28.82,SW,234,0.0,0.0,58,0.00,,---,0.00,VWS V14.01,2014-09-01 09:56:00,
2014-09-01 06:02:00,70.7,55.2,28.82,SW,233,0.0,0.0,58,0.00,,---,0.00,VWS V14.01,2014-09-01 10:02:00,
2014-09-01 06:08:00,70.7,55.7,28.82,SW,233,0.0,0.0,59,0.00,,---,0.00,VWS V14.01,2014-09-01 10:08:00,
2014-09-01 06:13:00,70.7,55.7,28.79,SW,223,0.0,0.0,59,0.00,,---,0.00,VWS V14.01,2014-09-01 10:13:00,
2014-09-01 06:19:00,70.7,55.7,28.79,SW,219,4.0,4.0,59,0.00,,---,0.00,VWS V14.01,2014-09-01 10:19:00,
2014-09-01 06:24:00,70.7,56.2,28.79,SW,219,0.0,0.0,60,0.00,,---,0.00,VWS V14.01,2014-09-01 10:24:00,
2014-09-01 06:30:00,70.7,56.2,28.79,SW,219,0.0,0.0,60,0.00,,---,0.00,VWS V14.01,2014-09-01 10:30:00,
2014-09-01 06:36:00,70.7,56.2,28.79,SW,219,0.0,0.0,60,0.00,,---,0.00,VWS V14.01,2014-09-01 10:36:00,
2014-09-01 06:41:00,70.9,56.3,28.79,SW,219,0.0,0.0,60,0.00,,---,0.00,VWS V14.01,2014-09-01 10:41:00,
2014-09-01 06:47:00,70.9,56.8,28.79,SW,219,0.0,0.0,61,0.00,,---,0.00,VWS V14.01,2014-09-01 10:47:00,
2014-09-01 06:52:00,70.9,56.8,28.79,SSW,203,0.0,0.0,61,0.00,,---,0.00,VWS V14.01,2014-09-01 10:52:00,
2014-09-01 06:58:00,70.9,56.8,28.79,SSW,203,0.0,0.0,61,0.00,,---,0.00,VWS V14.01,2014-09-01 10:58:00,
2014-09-01 07:03:00,70.9,56.8,28.79,South,174,0.0,0.0,61,0.00,,---,0.00,VWS V14.01,2014-09-01 11:03:00,
2014-09-01 07:09:00,70.9,57.2,28.79,South,174,0.0,0.0,62,0.00,,---,0.00,VWS V14.01,2014-09-01 11:09:00,
2014-09-01 07:15:00,70.9,57.2,28.79,South,174,0.0,0.0,62,0.00,,---,0.00,VWS V14.01,2014-09-01 11:15:00,
2014-09-01 07:20:00,71.1,57.4,28.79,South,174,0.0,0.0,62,0.00,,---,0.00,VWS V14.01,2014-09-01 11:20:00,
2014-09-01 07:26:00,71.1,57.4,28.79,South,174,0.0,0.0,62,0.00,,---,0.00,VWS V14.01,2014-09-01 11:26:00,
2014-09-01 07:32:00,71.1,57.8,28.79,SW,216,4.0,4.0,63,0.00,,---,0.00,VWS V14.01,2014-09-01 11:32:00,
2014-09-01 07:37:00,71.1,57.8,28.79,SSE,164,0.0,0.0,63,0.00,,---,0.00,VWS V14.01,2014-09-01 11:37:00,
2014-09-01 07:43:00,71.2,58.5,28.79,SW,215,0.0,0.0,64,0.00,,---,0.00,VWS V14.01,2014-09-01 11:43:00,
2014-09-01 07:48:00,71.4,58.6,28.82,SSW,194,3.1,3.1,64,0.00,,---,0.00,VWS V14.01,2014-09-01 11:48:00,
2014-09-01 07:54:00,71.4,58.6,28.82,South,187,0.0,0.0,64,0.00,,---,0.00,VWS V14.01,2014-09-01 11:54:00,
2014-09-01 08:00:00,71.4,58.6,28.79,SSW,211,0.0,0.0,64,0.00,,---,0.00,VWS V14.01,2014-09-01 12:00:00,
2014-09-01 08:05:00,71.6,58.8,28.79,SSW,211,0.0,0.0,64,0.00,,---,0.00,VWS V14.01,2014-09-01 12:05:00,
2014-09-01 08:11:00,71.6,59.2,28.79,SW,226,0.0,0.0,65,0.00,,---,0.00,VWS V14.01,2014-09-01 12:11:00,
2014-09-01 08:16:00,71.8,59.4,28.79,SSE,157,0.0,0.0,65,0.00,,---,0.00,VWS V14.01,2014-09-01 12:16:00,
2014-09-01 08:22:00,71.8,59.4,28.79,SW,234,0.0,0.0,65,0.00,,---,0.00,VWS V14.01,2014-09-01 12:22:00,
2014-09-01 08:27:00,72.0,60.0,28.79,SSE,168,3.1,3.6,66,0.00,,---,0.00,VWS V14.01,2014-09-01 12:27:00,
2014-09-01 08:33:00,72.0,60.0,28.79,SW,223,3.1,3.6,66,0.00,,---,0.00,VWS V14.01,2014-09-01 12:33:00,
2014-09-01 08:39:00,72.1,60.2,28.79,SW,233,0.0,3.1,66,0.00,,---,0.00,VWS V14.01,2014-09-01 12:39:00,
2014-09-01 08:44:00,72.3,60.8,28.79,SSW,192,0.0,0.0,67,0.00,,---,0.00,VWS V14.01,2014-09-01 12:44:00,
2014-09-01 08:50:00,72.7,61.5,28.79,SW,234,3.1,5.4,68,0.00,,---,0.00,VWS V14.01,2014-09-01 12:50:00,
2014-09-01 08:55:00,72.7,61.5,28.79,SSW,203,3.6,5.4,68,0.00,,---,0.00,VWS V14.01,2014-09-01 12:55:00,
2014-09-01 09:01:00,72.9,61.7,28.79,SSW,194,3.6,4.0,68,0.00,,---,0.00,VWS V14.01,2014-09-01 13:01:00,
2014-09-01 09:07:00,72.9,61.7,28.79,SW,217,4.0,5.8,68,0.00,,---,0.00,VWS V14.01,2014-09-01 13:07:00,
2014-09-01 09:12:00,72.9,61.7,28.79,SSW,196,0.0,0.0,68,0.00,,---,0.00,VWS V14.01,2014-09-01 13:12:00,
2014-09-01 09:18:00,72.9,61.7,28.79,WNW,300,4.0,4.0,68,0.00,,---,0.00,VWS V14.01,2014-09-01 13:18:00,
2014-09-01 09:23:00,72.9,61.3,28.79,South,191,2.7,2.7,67,0.00,,---,0.00,VWS V14.01,2014-09-01 13:23:00,
2014-09-01 09:28:00,72.9,61.3,28.79,South,180,0.0,0.0,67,0.00,,---,0.00,VWS V14.01,2014-09-01 13:28:00,
2014-09-01 09:33:00,72.9,61.3,28.79,SW,218,0.0,4.9,67,0.00,,---,0.00,VWS V14.01,2014-09-01 13:33:00,
2014-09-01 09:39:00,72.7,61.1,28.79,SW,218,0.0,0.0,67,0.00,,---,0.00,VWS V14.01,2014-09-01 13:39:00,
2014-09-01 09:44:00,72.9,61.7,28.79,WSW,257,0.0,0.0,68,0.00,,---,0.00,VWS V14.01,2014-09-01 13:44:00,
2014-09-01 09:49:00,73.2,62.5,28.79,SW,229,0.0,3.1,69,0.00,,---,0.00,VWS V14.01,2014-09-01 13:49:00,
2014-09-01 09:54:00,73.4,62.6,28.79,WSW,257,0.0,0.0,69,0.00,,---,0.00,VWS V14.01,2014-09-01 13:54:00,
2014-09-01 10:00:00,73.6,62.8,28.79,WSW,240,5.4,5.4,69,0.00,,---,0.00,VWS V14.01,2014-09-01 14:00:00,
2014-09-01 10:05:00,73.8,63.0,28.79,SW,230,2.2,4.0,69,0.00,,---,0.00,VWS V14.01,2014-09-01 14:05:00,
2014-09-01 10:10:00,73.9,63.1,28.79,SW,230,2.2,2.2,69,0.00,,---,0.00,VWS V14.01,2014-09-01 14:10:00,
2014-09-01 10:16:00,73.9,63.1,28.79,SW,230,2.2,2.2,69,0.00,,---,0.00,VWS V14.01,2014-09-01 14:16:00,
2014-09-01 10:22:00,74.5,63.7,28.79,SW,226,5.8,5.8,69,0.00,,---,0.00,VWS V14.01,2014-09-01 14:22:00,
2014-09-01 10:27:00,75.0,64.2,28.79,SW,234,3.6,3.6,69,0.00,,---,0.00,VWS V14.01,2014-09-01 14:27:00,
2014-09-01 10:32:00,75.0,60.7,28.79,West,274,2.7,5.8,61,0.00,,---,0.00,VWS V14.01,2014-09-01 14:32:00,
2014-09-01 10:37:00,74.7,49.4,28.79,SW,236,3.6,3.6,41,0.00,,---,0.00,VWS V14.01,2014-09-01 14:37:00,
2014-09-01 10:43:00,75.0,51.0,28.79,SW,229,0.0,3.1,43,0.00,,---,0.00,VWS V14.01,2014-09-01 14:43:00,
2014-09-01 10:48:00,75.2,47.9,28.79,SW,223,6.3,6.3,38,0.00,,---,0.00,VWS V14.01,2014-09-01 14:48:00,
2014-09-01 10:54:00,75.2,47.9,28.79,SW,223,6.3,6.3,38,0.00,,---,0.00,VWS V14.01,2014-09-01 14:54:00,
2014-09-01 10:59:00,75.0,48.4,28.79,SW,223,6.3,6.3,39,0.00,,---,0.00,VWS V14.01,2014-09-01 14:59:00,
2014-09-01 11:04:00,74.7,48.1,28.79,SW,223,6.3,6.3,39,0.00,,---,0.00,VWS V14.01,2014-09-01 15:04:00,
2014-09-01 11:10:00,74.5,47.9,28.79,West,272,0.0,8.3,39,0.00,,---,0.00,VWS V14.01,2014-09-01 15:10:00,
2014-09-01 11:15:00,74.5,49.3,28.79,West,272,0.0,0.0,41,0.00,,---,0.00,VWS V14.01,2014-09-01 15:15:00,
2014-09-01 11:20:00,74.8,50.2,28.79,West,272,0.0,0.0,42,0.00,,---,0.00,VWS V14.01,2014-09-01 15:20:00,
2014-09-01 11:26:00,75.6,50.9,28.79,SSW,193,5.4,5.8,42,0.00,,---,0.00,VWS V14.01,2014-09-01 15:26:00,
2014-09-01 11:32:00,75.6,46.8,28.79,SSW,202,2.7,3.6,36,0.00,,---,0.00,VWS V14.01,2014-09-01 15:32:00,
2014-09-01 11:38:00,75.7,47.7,28.79,WSW,255,4.0,4.0,37,0.00,,---,0.00,VWS V14.01,2014-09-01 15:38:00,
2014-09-01 11:43:00,76.1,47.2,28.79,SW,222,5.4,7.6,36,0.00,,---,0.00,VWS V14.01,2014-09-01 15:43:00,
2014-09-01 11:48:00,76.5,46.0,28.79,WSW,238,0.0,0.0,34,0.00,,---,0.00,VWS V14.01,2014-09-01 15:48:00,
2014-09-01 11:53:00,77.2,47.4,28.79,SSW,211,5.4,5.8,35,0.00,,---,0.00,VWS V14.01,2014-09-01 15:53:00,
2014-09-01 11:59:00,77.9,44.9,28.76,SSW,206,0.0,4.0,31,0.00,,---,0.00,VWS V14.01,2014-09-01 15:59:00,
2014-09-01 12:04:00,78.3,39.6,28.76,WNW,295,3.1,6.3,25,0.00,,---,0.00,VWS V14.01,2014-09-01 16:04:00,
2014-09-01 12:09:00,78.3,39.6,28.76,WSW,255,3.6,3.6,25,0.00,,---,0.00,VWS V14.01,2014-09-01 16:09:00,
2014-09-01 12:14:00,78.1,38.4,28.76,SW,214,2.7,5.8,24,0.00,,---,0.00,VWS V14.01,2014-09-01 16:14:00,
2014-09-01 12:20:00,78.1,39.4,28.76,SW,214,6.3,6.3,25,0.00,,---,0.00,VWS V14.01,2014-09-01 16:20:00,
2014-09-01 12:25:00,78.6,39.9,28.76,WNW,288,4.0,5.8,25,0.00,,---,0.00,VWS V14.01,2014-09-01 16:25:00,
2014-09-01 12:31:00,79.3,38.4,28.76,WNW,288,3.6,3.6,23,0.00,,---,0.00,VWS V14.01,2014-09-01 16:31:00,
2014-09-01 12:37:00,79.7,36.3,28.76,WNW,283,3.1,3.6,21,0.00,,---,0.00,VWS V14.01,2014-09-01 16:37:00,
2014-09-01 12:42:00,80.1,36.7,28.76,SW,235,4.0,4.0,21,0.00,,---,0.00,VWS V14.01,2014-09-01 16:42:00,
2014-09-01 12:48:00,80.2,35.6,28.76,SSE,167,6.3,8.3,20,0.00,,---,0.00,VWS V14.01,2014-09-01 16:48:00,
2014-09-01 12:53:00,80.2,35.6,28.76,WNW,298,6.3,6.7,20,0.00,,---,0.00,VWS V14.01,2014-09-01 16:53:00,
2014-09-01 12:59:00,80.4,35.7,28.76,SSW,212,5.8,8.1,20,0.00,,---,0.00,VWS V14.01,2014-09-01 16:59:00,
2014-09-01 13:04:00,80.4,35.7,28.76,NW,308,4.9,4.9,20,0.00,,---,0.00,VWS V14.01,2014-09-01 17:04:00,
2014-09-01 13:10:00,80.4,35.7,28.76,WSW,240,6.3,7.2,20,0.00,,---,0.00,VWS V14.01,2014-09-01 17:10:00,
2014-09-01 13:16:00,80.8,36.0,28.76,SW,234,4.9,4.9,20,0.00,,---,0.00,VWS V14.01,2014-09-01 17:16:00,
2014-09-01 13:21:00,81.0,34.9,28.76,SW,227,3.6,6.3,19,0.00,,---,0.00,VWS V14.01,2014-09-01 17:21:00,
2014-09-01 13:27:00,81.0,34.9,28.76,SW,214,5.4,6.3,19,0.00,,---,0.00,VWS V14.01,2014-09-01 17:27:00,
2014-09-01 13:33:00,81.1,36.3,28.73,SSW,207,4.9,6.3,20,0.00,,---,0.00,VWS V14.01,2014-09-01 17:33:00,
2014-09-01 13:38:00,81.5,35.3,28.73,WSW,245,3.1,5.4,19,0.00,,---,0.00,VWS V14.01,2014-09-01 17:38:00,
2014-09-01 13:44:00,81.9,35.6,28.73,WSW,254,5.8,5.8,19,0.00,,---,0.00,VWS V14.01,2014-09-01 17:44:00,
2014-09-01 13:49:00,82.0,35.8,28.73,SSW,192,3.6,7.6,19,0.00,,---,0.00,VWS V14.01,2014-09-01 17:49:00,
2014-09-01 13:55:00,82.4,36.0,28.73,SW,219,6.3,7.6,19,0.00,,---,0.00,VWS V14.01,2014-09-01 17:55:00,
2014-09-01 14:00:00,82.6,36.2,28.73,SSW,192,10.1,10.1,19,0.00,,---,0.00,VWS V14.01,2014-09-01 18:00:00,
2014-09-01 14:06:00,82.6,31.9,28.73,WSW,242,2.7,6.3,16,0.00,,---,0.00,VWS V14.01,2014-09-01 18:06:00,
2014-09-01 14:12:00,82.8,32.0,28.73,South,177,0.0,8.3,16,0.00,,---,0.00,VWS V14.01,2014-09-01 18:12:00,
2014-09-01 14:17:00,82.6,31.9,28.73,NW,322,6.3,7.6,16,0.00,,---,0.00,VWS V14.01,2014-09-01 18:17:00,
2014-09-01 14:23:00,82.4,36.0,28.73,SSE,165,6.3,7.6,19,0.00,,---,0.00,VWS V14.01,2014-09-01 18:23:00,
2014-09-01 14:29:00,82.8,32.0,28.73,SW,226,8.1,8.1,16,0.00,,---,0.00,VWS V14.01,2014-09-01 18:29:00,
2014-09-01 14:34:00,82.9,32.2,28.73,WSW,257,5.8,5.8,16,0.00,,---,0.00,VWS V14.01,2014-09-01 18:34:00,
2014-09-01 14:40:00,82.9,32.2,28.73,West,263,7.2,7.2,16,0.00,,---,0.00,VWS V14.01,2014-09-01 18:40:00,
2014-09-01 14:45:00,82.6,31.9,28.73,West,259,6.3,7.2,16,0.00,,---,0.00,VWS V14.01,2014-09-01 18:45:00,
2014-09-01 14:51:00,82.6,31.9,28.73,SW,218,6.3,7.6,16,0.00,,---,0.00,VWS V14.01,2014-09-01 18:51:00,
2014-09-01 14:57:00,82.2,33.1,28.73,WSW,242,4.0,8.7,17,0.00,,---,0.00,VWS V14.01,2014-09-01 18:57:00,
2014-09-01 15:02:00,82.0,33.0,28.73,WSW,255,3.6,5.8,17,0.00,,---,0.00,VWS V14.01,2014-09-01 19:02:00,
2014-09-01 15:08:00,81.7,32.7,28.73,SW,216,5.4,7.6,17,0.00,,---,0.00,VWS V14.01,2014-09-01 19:08:00,
2014-09-01 15:13:00,81.0,32.1,28.73,WSW,238,3.6,8.3,17,0.00,,---,0.00,VWS V14.01,2014-09-01 19:13:00,
2014-09-01 15:19:00,80.8,34.7,28.73,West,264,5.4,7.2,19,0.00,,---,0.00,VWS V14.01,2014-09-01 19:19:00,
2014-09-01 15:24:00,81.0,34.9,28.73,SW,235,2.7,4.0,19,0.00,,---,0.00,VWS V14.01,2014-09-01 19:24:00,
2014-09-01 15:30:00,81.3,35.2,28.73,WNW,289,3.6,6.3,19,0.00,,---,0.00,VWS V14.01,2014-09-01 19:30:00,
2014-09-01 15:36:00,81.7,35.5,28.73,SSW,198,4.0,7.6,19,0.00,,---,0.00,VWS V14.01,2014-09-01 19:36:00,
2014-09-01 15:41:00,82.0,33.0,28.73,WSW,244,6.7,6.7,17,0.00,,---,0.00,VWS V14.01,2014-09-01 19:41:00,
2014-09-01 15:47:00,82.0,35.8,28.73,South,182,4.9,4.9,19,0.00,,---,0.00,VWS V14.01,2014-09-01 19:47:00,
2014-09-01 15:52:00,82.4,31.8,28.73,WSW,242,3.6,8.7,16,0.00,,---,0.00,VWS V14.01,2014-09-01 19:52:00,
2014-09-01 15:57:00,82.6,36.2,28.73,WNW,298,4.9,8.7,19,0.00,,---,0.00,VWS V14.01,2014-09-01 19:57:00,
2014-09-01 16:02:00,82.9,32.2,28.73,West,279,5.4,5.8,16,0.00,,---,0.00,VWS V14.01,2014-09-01 20:02:00,
2014-09-01 16:07:00,82.6,31.9,28.73,SSW,201,6.3,6.3,16,0.00,,---,0.00,VWS V14.01,2014-09-01 20:07:00,
2014-09-01 16:12:00,82.2,33.1,28.73,WSW,250,3.1,5.4,17,0.00,,---,0.00,VWS V14.01,2014-09-01 20:12:00,
2014-09-01 16:18:00,82.0,35.8,28.73,WNW,292,5.4,5.4,19,0.00,,---,0.00,VWS V14.01,2014-09-01 20:18:00,
2014-09-01 16:23:00,82.2,35.9,28.73,SW,229,4.0,5.8,19,0.00,,---,0.00,VWS V14.01,2014-09-01 20:23:00,
2014-09-01 16:28:00,82.0,35.8,28.73,West,265,4.9,4.9,19,0.00,,---,0.00,VWS V14.01,2014-09-01 20:28:00,
2014-09-01 16:33:00,81.3,36.5,28.73,West,276,0.0,2.7,20,0.00,,---,0.00,VWS V14.01,2014-09-01 20:33:00,
2014-09-01 16:39:00,80.8,37.2,28.73,WSW,238,4.0,4.0,21,0.00,,---,0.00,VWS V14.01,2014-09-01 20:39:00,
2014-09-01 16:44:00,80.6,38.3,28.70,WSW,246,0.0,5.4,22,0.00,,---,0.00,VWS V14.01,2014-09-01 20:44:00,
2014-09-01 16:50:00,80.8,37.2,28.70,West,259,3.6,3.6,21,0.00,,---,0.00,VWS V14.01,2014-09-01 20:50:00,
2014-09-01 16:55:00,81.1,36.3,28.70,WNW,284,3.6,4.9,20,0.00,,---,0.00,VWS V14.01,2014-09-01 20:55:00,
2014-09-01 17:01:00,81.5,36.6,28.70,SW,219,4.9,4.9,20,0.00,,---,0.00,VWS V14.01,2014-09-01 21:01:00,
2014-09-01 17:06:00,81.5,36.6,28.70,WSW,239,4.0,6.3,20,0.00,,---,0.00,VWS V14.01,2014-09-01 21:06:00,
2014-09-01 17:12:00,81.0,34.9,28.70,SW,224,3.1,5.4,19,0.00,,---,0.00,VWS V14.01,2014-09-01 21:12:00,
2014-09-01 17:18:00,78.8,34.4,28.73,WSW,248,4.0,10.1,20,0.00,,---,0.00,VWS V14.01,2014-09-01 21:18:00,
2014-09-01 17:23:00,76.1,35.7,28.73,South,187,3.6,4.9,23,0.00,,---,0.00,VWS V14.01,2014-09-01 21:23:00,
2014-09-01 17:29:00,74.7,40.3,28.73,SSW,212,4.5,4.5,29,0.00,,---,0.00,VWS V14.01,2014-09-01 21:29:00,
2014-09-01 17:34:00,74.1,41.6,28.73,SW,218,2.7,4.0,31,0.00,,---,0.00,VWS V14.01,2014-09-01 21:34:00,
2014-09-01 17:40:00,74.1,41.6,28.73,SSW,205,0.0,0.0,31,0.00,,---,0.00,VWS V14.01,2014-09-01 21:40:00,
2014-09-01 17:46:00,74.5,42.7,28.73,SSW,205,0.0,0.0,32,0.00,,---,0.00,VWS V14.01,2014-09-01 21:46:00,
2014-09-01 17:51:00,75.0,44.8,28.73,SSW,207,0.0,0.0,34,0.00,,---,0.00,VWS V14.01,2014-09-01 21:51:00,
2014-09-01 17:56:00,75.2,44.9,28.73,SSW,207,0.0,0.0,34,0.00,,---,0.00,VWS V14.01,2014-09-01 21:56:00,
2014-09-01 18:02:00,75.6,46.0,28.73,SSW,207,0.0,0.0,35,0.00,,---,0.00,VWS V14.01,2014-09-01 22:02:00,
2014-09-01 18:07:00,75.9,47.1,28.73,SSW,207,0.0,0.0,36,0.00,,---,0.00,VWS V14.01,2014-09-01 22:07:00,
2014-09-01 18:13:00,76.1,46.5,28.73,SSW,207,0.0,0.0,35,0.00,,---,0.00,VWS V14.01,2014-09-01 22:13:00,
2014-09-01 18:18:00,76.5,46.8,28.70,SSW,207,0.0,0.0,35,0.00,,---,0.00,VWS V14.01,2014-09-01 22:18:00,
2014-09-01 18:23:00,76.6,46.2,28.70,SSW,207,0.0,0.0,34,0.00,,---,0.00,VWS V14.01,2014-09-01 22:23:00,
2014-09-01 18:28:00,76.8,46.3,28.70,SSW,207,0.0,0.0,34,0.00,,---,0.00,VWS V14.01,2014-09-01 22:28:00,
2014-09-01 18:34:00,76.8,46.3,28.73,SSW,207,0.0,0.0,34,0.00,,---,0.00,VWS V14.01,2014-09-01 22:34:00,
2014-09-01 18:39:00,77.0,45.7,28.73,SSW,207,0.0,0.0,33,0.00,,---,0.00,VWS V14.01,2014-09-01 22:39:00,
2014-09-01 18:44:00,77.0,45.7,28.73,SSW,207,0.0,0.0,33,0.00,,---,0.00,VWS V14.01,2014-09-01 22:44:00,
2014-09-01 18:50:00,77.2,45.9,28.73,SSW,207,0.0,0.0,33,0.00,,---,0.00,VWS V14.01,2014-09-01 22:50:00,
2014-09-01 18:56:00,77.4,46.0,28.73,SW,234,0.0,0.0,33,0.00,,---,0.00,VWS V14.01,2014-09-01 22:56:00,
2014-09-01 19:01:00,77.5,46.2,28.73,WSW,238,2.2,4.9,33,0.00,,---,0.00,VWS V14.01,2014-09-01 23:01:00,
2014-09-01 19:06:00,77.5,45.4,28.73,SW,229,2.7,2.7,32,0.00,,---,0.00,VWS V14.01,2014-09-01 23:06:00,
2014-09-01 19:11:00,77.7,44.7,28.73,SW,229,2.7,2.7,31,0.00,,---,0.00,VWS V14.01,2014-09-01 23:11:00,
2014-09-01 19:16:00,77.7,43.8,28.73,SW,229,2.7,2.7,30,0.00,,---,0.00,VWS V14.01,2014-09-01 23:16:00,
2014-09-01 19:21:00,77.7,43.0,28.73,SW,229,2.7,2.7,29,0.00,,---,0.00,VWS V14.01,2014-09-01 23:21:00,
2014-09-01 19:27:00,77.7,41.1,28.73,SW,229,2.7,2.7,27,0.00,,---,0.00,VWS V14.01,2014-09-01 23:27:00,
2014-09-01 19:32:00,77.7,41.1,28.73,SW,229,2.7,2.7,27,0.00,,---,0.00,VWS V14.01,2014-09-01 23:32:00,
2014-09-01 19:37:00,77.7,40.1,28.73,SW,229,2.7,2.7,26,0.00,,---,0.00,VWS V14.01,2014-09-01 23:37:00,
2014-09-01 19:42:00,77.9,39.3,28.73,SW,229,2.7,2.7,25,0.00,,---,0.00,VWS V14.01,2014-09-01 23:42:00,
2014-09-01 19:48:00,77.7,39.1,28.73,SW,229,2.7,2.7,25,0.00,,---,0.00,VWS V14.01,2014-09-01 23:48:00,
2014-09-01 19:53:00,77.7,39.1,28.73,SW,229,2.7,2.7,25,0.00,,---,0.00,VWS V14.01,2014-09-01 23:53:00,
2014-09-01 19:58:00,77.7,39.1,28.73,SW,229,2.7,2.7,25,0.00,,---,0.00,VWS V14.01,2014-09-01 23:58:00,
2014-09-01 20:04:00,77.7,39.1,28.73,SW,229,2.7,2.7,25,0.00,,---,0.00,VWS V14.01,2014-09-02 00:04:00,
2014-09-01 20:09:00,77.5,39.0,28.73,SW,229,2.7,2.7,25,0.00,,---,0.00,VWS V14.01,2014-09-02 00:09:00,
2014-09-01 20:14:00,77.4,39.8,28.73,SW,229,2.7,2.7,26,0.00,,---,0.00,VWS V14.01,2014-09-02 00:14:00,
2014-09-01 20:19:00,77.4,39.8,28.73,SW,229,2.7,2.7,26,0.00,,---,0.00,VWS V14.01,2014-09-02 00:19:00,
2014-09-01 20:25:00,77.0,39.5,28.73,SW,229,2.7,2.7,26,0.00,,---,0.00,VWS V14.01,2014-09-02 00:25:00,
2014-09-01 20:30:00,76.8,40.3,28.73,SW,229,2.7,2.7,27,0.00,,---,0.00,VWS V14.01,2014-09-02 00:30:00,
2014-09-01 20:35:00,76.5,39.1,28.73,SW,229,2.7,2.7,26,0.00,,---,0.00,VWS V14.01,2014-09-02 00:35:00,
2014-09-01 20:40:00,76.3,39.9,28.73,SW,229,2.7,2.7,27,0.00,,---,0.00,VWS V14.01,2014-09-02 00:40:00,
2014-09-01 20:46:00,76.1,38.8,28.73,SW,229,2.7,2.7,26,0.00,,---,0.00,VWS V14.01,2014-09-02 00:46:00,
2014-09-01 20:51:00,75.9,38.6,28.73,SW,229,2.7,2.7,26,0.00,,---,0.00,VWS V14.01,2014-09-02 00:51:00,